Location: Czekan�w
(50.3488°N, 18.7344°E)
Time: 19:39:32
(UTC+00:00)

STARLINK-1141 - Pass Details

Date: 17 February 2020
Orbit: 548 x 551 km, 53.0° (Epoch: 30 March)

Event Time Altitude Azimuth Distance (km) Brightness Sun altitude
Exits shadow 02:24:30 19° 71° (ENE) 1,367 6.3 -33.5°
Drops below altitude 10° 02:25:41 10° 70° (ENE) 1,831 7.1 -33.4°
Enters shadow 03:24:32 -65° 258° (WSW) 12,174 10.4 -24.4°
Maximum altitude 04:01:18 59° 357° (N) 642 3.9 -18.6°
